Morris, IL

5:53 PM CDT on September 27, 2016 (GMT -0500)
Morris

Weather History for KC09 - January, 2013

Change the Weather History Date:

Monday, January 28, 2013

  Actual Average (KLOT) Record (KLOT)
Temperature  
Mean Temperature 44 °F 24 °F  
Max Temperature 50 °F 31 °F 56 °F (2002)
Min Temperature 39 °F 16 °F -15 °F (2014)
Degree Days  
Heating Degree Days 20 41  
Month to date heating degree days 1172  
Since 1 July heating degree days 3558  
Cooling Degree Days 0 0  
Month to date cooling degree days 0  
Year to date cooling degree days 0  
Moisture  
Dew Point 46 °F    
Average Humidity 100    
Maximum Humidity 100    
Minimum Humidity 100    
Precipitation  
Precipitation 0.07 in 0.06 in 0.57 in (2006)
Month to date precipitation 1.78  
Year to date precipitation 1.78  
Snow  
Snow 0.00 in 0.30 in 1.50 in (2009)
Month to date snowfall 9.8  
Since 1 July snowfall 20.0  
Snow Depth -    
Sea Level Pressure  
Sea Level Pressure 29.88 in    
Wind  
Wind Speed 11 mph (SSW)    
Max Wind Speed 21 mph    
Max Gust Speed 25 mph    
Visibility 2 miles    
Events Fog , Rain , Thunderstorm    
T = Trace of Precipitation, MM = Missing Value Source: NWS Daily Summary

Daily Weather History Graph

Daily Weather History Graph

Search for Another Location

Airport or City:

Trip Planner

Search our weather history database for the weather conditions in past years. The results will help you decide how hot, cold, wet, or windy it might be!

Date:

Astronomy

Jan. 28, 2013 Rise Set
Actual Time 7:08 AM CST 5:05 PM CST
Civil Twilight 6:39 AM CST 5:34 PM CST
Nautical Twilight 6:05 AM CST 6:08 PM CST
Astronomical Twilight 5:33 AM CST 6:40 PM CST
Moon 7:01 PM CST (1/28) 7:32 AM CST (1/28)
Length of Visible Light 10h 55m
Length of Day
9h 56m
Full, 98% of the Moon is Illuminated
Jan 28
Full
Feb 3
Last Quarter
Feb 10
New
Feb 17
First Quarter
Feb 25
Full

Hourly Weather History & Observations

Time (CST) Temp. Windchill Dew Point Humidity Pressure Visibility Wind Dir Wind Speed Gust Speed Precip Events Conditions
12:15 AM 39.7 °F 32.7 °F 39.7 °F 100% 29.89 in 1.0 mi South 11.5 mph - N/A   Overcast
12:35 AM 40.5 °F 32.5 °F 40.5 °F 100% 29.88 in 1.5 mi South 15.0 mph - N/A   Overcast
12:55 AM 41.5 °F 33.5 °F 41.5 °F 100% 29.87 in 2.5 mi SSW 16.1 mph - N/A   Overcast
1:15 AM 41.9 °F 34.3 °F 41.9 °F 100% 29.87 in 2.5 mi SSW 15.0 mph - N/A   Overcast
1:35 AM 42.3 °F 34.8 °F 42.3 °F 100% 29.87 in 2.5 mi SSW 15.0 mph 18.4 mph N/A   Overcast
1:55 AM 43.5 °F 36.1 °F 43.5 °F 100% 29.87 in 3.0 mi SSW 16.1 mph 21.9 mph N/A   Overcast
2:15 AM 44.2 °F 36.4 °F 44.2 °F 100% 29.86 in 3.0 mi SSW 18.4 mph 24.2 mph N/A   Overcast
2:35 AM 44.6 °F 36.9 °F 44.6 °F 100% 29.86 in 3.0 mi SSW 18.4 mph 24.2 mph N/A   Overcast
2:55 AM 44.8 °F 36.6 °F 44.8 °F 100% 29.85 in 3.0 mi SSW 20.7 mph 25.3 mph N/A   Overcast
3:15 AM 45.3 °F 38.1 °F 45.3 °F 100% 29.84 in 3.0 mi SSW 17.3 mph 21.9 mph N/A   Overcast
3:35 AM 45.9 °F 39.1 °F 45.9 °F 100% 29.84 in 2.5 mi SSW 16.1 mph 24.2 mph 0.02 in Rain Light Rain
3:55 AM 46.2 °F 39.3 °F 46.2 °F 100% 29.83 in 3.0 mi SSW 17.3 mph 23.0 mph 0.02 in   Overcast
4:15 AM 46.6 °F - 46.6 °F 100% 29.83 in 3.0 mi SSW 19.6 mph 23.0 mph N/A Rain Light Rain
4:35 AM 46.6 °F - 46.6 °F 100% 29.83 in 3.0 mi SSW 16.1 mph 21.9 mph N/A   Overcast
4:55 AM 46.9 °F - 46.9 °F 100% 29.83 in 3.0 mi SSW 16.1 mph 20.7 mph N/A   Overcast
5:15 AM 47.8 °F - 47.8 °F 100% 29.83 in 4.0 mi SSW 16.1 mph 23.0 mph N/A   Overcast
5:35 AM 48.2 °F - 48.2 °F 100% 29.83 in 4.0 mi SSW 16.1 mph 21.9 mph N/A   Overcast
5:55 AM 48.4 °F - 48.4 °F 100% 29.83 in 4.0 mi SSW 15.0 mph - N/A   Overcast
6:15 AM 48.6 °F - 48.6 °F 100% 29.84 in 4.0 mi SW 13.8 mph - N/A   Overcast
6:35 AM 49.1 °F - 49.1 °F 100% 29.84 in 4.0 mi SW 18.4 mph - N/A Rain Light Rain
6:55 AM 48.9 °F - 48.9 °F 100% 29.85 in 2.5 mi SW 15.0 mph - N/A   Overcast
7:15 AM 48.2 °F - 48.2 °F 100% 29.85 in 2.5 mi SW 12.7 mph - N/A   Overcast
7:35 AM 49.1 °F - 49.1 °F 100% 29.86 in 2.5 mi WSW 13.8 mph - N/A   Overcast
7:55 AM 49.3 °F - 49.3 °F 100% 29.87 in 1.2 mi WSW 11.5 mph - N/A   Overcast
8:15 AM 49.1 °F - 49.1 °F 100% 29.88 in 1.0 mi WSW 11.5 mph - N/A   Overcast
8:35 AM 48.9 °F - 48.9 °F 100% 29.89 in 1.0 mi WSW 11.5 mph - N/A   Overcast
8:55 AM 48.7 °F - 48.7 °F 100% 29.89 in 1.0 mi WSW 9.2 mph - N/A   Overcast
9:15 AM 49.1 °F - 49.1 °F 100% 29.89 in 0.8 mi WSW 9.2 mph - N/A   Overcast
9:35 AM 49.1 °F - 49.1 °F 100% 29.90 in 0.8 mi West 9.2 mph - N/A   Overcast
9:55 AM 49.1 °F - 49.1 °F 100% 29.91 in 1.2 mi West 9.2 mph - N/A   Overcast
10:15 AM 49.5 °F - 49.5 °F 100% 29.93 in 2.0 mi West 10.4 mph - N/A   Overcast
10:35 AM 49.3 °F - 49.3 °F 100% 29.93 in 3.0 mi West 9.2 mph - N/A   Overcast
10:55 AM 48.7 °F - 48.7 °F 100% 29.93 in 3.0 mi WNW 12.7 mph - N/A   Overcast
11:15 AM 48.0 °F - 48.0 °F 100% 29.93 in 2.0 mi WNW 12.7 mph - N/A   Overcast
11:35 AM 47.7 °F - 47.7 °F 100% 29.93 in 4.0 mi WNW 10.4 mph - N/A   Overcast
11:55 AM 46.9 °F - 46.9 °F 100% 29.93 in 0.8 mi NW 6.9 mph - N/A   Overcast
12:15 PM 46.0 °F 41.4 °F 46.0 °F 100% 29.93 in 1.0 mi NW 9.2 mph - N/A   Overcast
12:35 PM 45.9 °F 41.7 °F 45.9 °F 100% 29.92 in 3.0 mi WNW 8.1 mph - N/A   Overcast
12:55 PM 46.0 °F 43.9 °F 46.0 °F 100% 29.91 in 4.0 mi NW 4.6 mph - N/A   Overcast
1:15 PM 46.0 °F 44.8 °F 46.0 °F 100% 29.91 in 4.0 mi NW 3.5 mph - N/A   Overcast
1:35 PM 45.7 °F - 45.7 °F 100% 29.91 in 4.0 mi Calm Calm - N/A   Overcast
1:55 PM 45.5 °F - 45.5 °F 100% 29.91 in 4.0 mi Calm Calm - N/A   Overcast
2:15 PM 45.1 °F - 45.1 °F 100% 29.92 in 5.0 mi Calm Calm - N/A   Overcast
2:35 PM 45.5 °F - 45.5 °F 100% 29.92 in 4.0 mi Calm Calm - N/A   Overcast
2:55 PM 45.1 °F - 45.1 °F 100% 29.93 in 3.0 mi Calm Calm - N/A   Overcast
3:15 PM 44.8 °F - 44.8 °F 100% 29.92 in 3.0 mi Calm Calm - N/A   Overcast
3:35 PM 44.6 °F - 44.6 °F 100% 29.93 in 3.0 mi Calm Calm - N/A   Overcast
3:55 PM 44.2 °F - 44.2 °F 100% 29.93 in 2.5 mi Calm Calm - N/A   Overcast
4:15 PM 44.1 °F - 44.1 °F 100% 29.92 in 2.5 mi Calm Calm - N/A   Overcast
4:35 PM 43.9 °F 42.3 °F 43.9 °F 100% 29.92 in 2.5 mi ENE 3.5 mph - N/A   Overcast
4:55 PM 44.6 °F - 44.6 °F 100% 29.92 in 3.0 mi Calm Calm - N/A   Overcast
5:15 PM 43.5 °F 40.9 °F 43.5 °F 100% 29.92 in 3.0 mi ENE 4.6 mph - N/A   Overcast
5:35 PM 43.7 °F 42.1 °F 43.7 °F 100% 29.93 in 4.0 mi ENE 3.5 mph - N/A   Overcast
5:55 PM 43.0 °F 41.3 °F 43.0 °F 100% 29.93 in 3.0 mi ENE 3.5 mph - N/A   Overcast
6:15 PM 43.0 °F 41.3 °F 43.0 °F 100% 29.93 in 3.0 mi ENE 3.5 mph - N/A   Overcast
6:35 PM 42.6 °F 39.9 °F 42.6 °F 100% 29.93 in 2.5 mi ENE 4.6 mph - N/A   Overcast
6:55 PM 42.4 °F 38.1 °F 42.4 °F 100% 29.91 in 2.0 mi East 6.9 mph - N/A   Overcast
7:15 PM 43.0 °F 40.3 °F 43.0 °F 100% 29.91 in 1.5 mi East 4.6 mph - N/A   Overcast
7:35 PM 43.7 °F 41.1 °F 43.7 °F 100% 29.91 in 0.2 mi East 4.6 mph - N/A Fog Fog
7:55 PM 44.6 °F 42.2 °F 44.6 °F 100% 29.91 in 0.2 mi East 4.6 mph - N/A Fog Fog
8:15 PM 44.8 °F 42.4 °F 44.8 °F 100% 29.91 in 0.2 mi East 4.6 mph - N/A Fog Fog
8:35 PM 45.0 °F 40.6 °F 45.0 °F 100% 29.90 in 0.2 mi East 8.1 mph - N/A Fog Fog
8:55 PM 45.3 °F 41.6 °F 45.3 °F 100% 29.90 in 0.2 mi East 6.9 mph - N/A Fog Fog
9:15 PM 45.7 °F 41.0 °F 45.7 °F 100% 29.88 in 0.2 mi East 9.2 mph - N/A Fog Fog
9:35 PM 45.9 °F 42.3 °F 45.9 °F 100% 29.87 in 0.2 mi East 6.9 mph - N/A Fog Fog
9:55 PM 46.8 °F - 46.8 °F 100% 29.85 in 0.2 mi ESE 10.4 mph - N/A Rain , Thunderstorm Thunderstorms and Rain
10:15 PM 45.3 °F 43.0 °F 45.3 °F 100% 29.85 in 0.5 mi North 4.6 mph - 0.02 in Rain Light Rain
10:35 PM 44.6 °F 42.2 °F 44.6 °F 100% 29.85 in 1.0 mi NNE 4.6 mph - 0.04 in Rain Light Rain
10:55 PM 45.9 °F 40.8 °F 45.9 °F 100% 29.82 in 0.5 mi ESE 10.4 mph - 0.05 in Fog Fog
11:15 PM 48.9 °F - 48.9 °F 100% 29.81 in 0.2 mi ESE 8.1 mph - N/A Fog , Thunderstorm Fog
11:35 PM 50.0 °F - 50.0 °F 100% 29.80 in 0.2 mi SE 9.2 mph - N/A Fog Fog
11:55 PM 50.5 °F - 50.5 °F 100% 29.79 in 0.2 mi SSE 9.2 mph - N/A Fog Fog